QPF
0.00 0.00 0.00 0.00 0.00 0.00 0.00 0.01 0.01 0.01 0.00 0.00 0.00 0.00 0.00 0.00 0.00 0.01 0.01 0.02 0.03 0.04 0.05 0.07 0.09 0.11 0.14 0.15 0.17 0.19 0.19 0.18 0.14 0.12 0.10 0.08 0.07 0.06
0.00 0.00 0.00 0.00 0.00 0.00 0.00 0.00 0.00 0.00 0.00 0.00 0.00 0.00 0.00 0.00 0.00 0.00 0.00 0.01 0.01 0.02 0.03 0.04 0.05 0.07 0.10 0.11 0.13 0.13 0.13 0.13 0.12 0.10 0.09 0.08 0.07 0.06
0.00 0.00 0.00 0.00 0.00 0.00 0.00 0.00 0.00 0.00 0.00 0.00 0.00 0.00 0.00 0.00 0.00 0.00 0.00 0.00 0.01 0.02 0.02 0.03 0.04 0.05 0.06 0.08 0.09 0.08 0.07 0.07 0.07 0.06 0.06 0.06 0.05 0.04
0.00 0.00 0.00 0.00 0.00 0.00 0.00 0.00 0.00 0.00 0.00 0.00 0.00 0.00 0.00 0.00 0.00 0.00 0.00 0.00 0.00 0.01 0.01 0.02 0.03 0.03 0.04 0.04 0.04 0.04 0.04 0.03 0.03 0.03 0.03 0.03 0.02 0.02
0.00 0.00 0.00 0.00 0.00 0.00 0.00 0.00 0.00 0.00 0.00 0.00 0.00 0.00 0.00 0.00 0.00 0.00 0.00 0.00 0.00 0.00 0.01 0.01 0.01 0.01 0.01 0.02 0.02 0.01 0.01 0.01 0.01 0.01 0.01 0.01 0.01 0.01
0.00 0.00 0.00 0.00 0.00 0.00 0.00 0.00 0.00 0.00 0.00 0.00 0.00 0.00 0.00 0.00 0.00 0.00 0.00 0.00 0.00 0.00 0.00 0.00 0.01 0.01 0.01 0.01 0.01 0.00 0.00 0.00 0.00 0.00 0.00 0.01 0.01 0.01
0.00 0.00 0.00 0.00 0.00 0.00 0.00 0.00 0.00 0.00 0.00 0.00 0.00 0.00 0.00 0.00 0.00 0.00 0.00 0.00 0.00 0.00 0.00 0.00 0.00 0.00 0.00 0.00 0.00 0.00 0.00 0.00 0.00 0.00 0.00 0.00 0.00 0.01
0.00 0.00 0.00 0.00 0.00 0.00 0.00 0.00 0.00 0.00 0.00 0.00 0.00 0.00 0.00 0.00 0.00 0.00 0.00 0.00 0.00 0.00 0.00 0.00 0.00 0.00 0.00 0.00 0.00 0.00 0.00 0.00 0.00 0.00 0.00 0.00 0.00 0.00
0.00 0.00 0.00 0.00 0.00 0.00 0.00 0.00 0.00 0.00 0.00 0.00 0.00 0.00 0.00 0.00 0.00 0.00 0.00 0.00 0.00 0.00 0.00 0.00 0.00 0.00 0.00 0.00 0.00 0.00 0.00 0.00 0.00 0.00 0.00 0.00 0.00 0.00
0.00 0.00 0.00 0.00 0.00 0.00 0.00 0.00 0.00 0.00 0.00 0.00 0.00 0.00 0.00 0.00 0.00 0.00 0.00 0.00 0.00 0.00 0.00 0.00 0.00 0.00 0.00 0.00 0.00 0.00 0.00 0.00 0.00 0.00 0.00 0.00 0.00 0.00
0.00 0.00 0.00 0.00 0.00 0.00 0.00 0.00 0.00 0.00 0.00 0.00 0.00 0.00 0.00 0.00 0.00 0.00 0.00 0.00 0.00 0.00 0.00 0.00 0.00 0.00 0.00 0.00 0.00 0.00 0.00 0.00 0.00 0.00 0.00 0.00 0.00 0.00
0.00 0.00 0.00 0.00 0.00 0.00 0.00 0.00 0.00 0.00 0.00 0.00 0.00 0.00 0.00 0.00 0.00 0.00 0.00 0.00 0.00 0.00 0.00 0.00 0.00 0.00 0.00 0.00 0.00 0.00 0.00 0.00 0.00 0.00 0.00 0.00 0.00 0.00
0.00 0.00 0.00 0.00 0.00 0.00 0.00 0.00 0.00 0.00 0.00 0.00 0.00 0.00 0.00 0.00 0.00 0.00 0.00 0.00 0.00 0.00 0.00 0.00 0.00 0.00 0.00 0.00 0.00 0.00 0.00 0.00 0.00 0.00 0.00 0.00 0.00 0.00
0.00 0.00 0.00 0.00 0.00 0.00 0.00 0.00 0.00 0.00 0.00 0.00 0.00 0.00 0.00 0.00 0.00 0.00 0.00 0.00 0.00 0.00 0.00 0.01 0.01 0.01 0.01 0.01 0.00 0.00 0.00 0.00 0.00 0.00 0.00 0.00 0.00 0.00
0.00 0.00 0.00 0.00 0.00 0.00 0.00 0.00 0.00 0.00 0.00 0.00 0.00 0.00 0.00 0.00 0.00 0.00 0.00 0.00 0.00 0.00 0.00 0.00 0.01 0.01 0.01 0.01 0.01 0.00 0.00 0.00 0.00 0.00 0.00 0.00 0.00 0.00
0.00 0.00 0.00 0.00 0.00 0.00 0.00 0.00 0.00 0.00 0.00 0.00 0.00 0.00 0.00 0.00 0.00 0.00 0.00 0.00 0.00 0.00 0.00 0.00 0.00 0.00 0.01 0.01 0.01 0.00 0.00 0.00 0.00 0.00 0.00 0.00 0.00 0.00
0.00 0.00 0.00 0.00 0.00 0.00 0.00 0.00 0.00 0.00 0.00 0.00 0.00 0.00 0.00 0.00 0.00 0.00 0.00 0.00 0.00 0.00 0.00 0.00 0.00 0.00 0.00 0.00 0.00 0.00 0.00 0.00 0.00 0.00 0.00 0.00 0.00 0.00
0.00 0.00 0.00 0.00 0.00 0.00 0.00 0.00 0.00 0.00 0.00 0.00 0.00 0.00 0.00 0.00 0.00 0.00 0.00 0.00 0.00 0.00 0.00 0.00 0.00 0.00 0.00 0.00 0.00 0.00 0.00 0.00 0.00 0.00 0.00 0.00 0.00 0.00
0.00 0.00 0.00 0.00 0.00 0.00 0.00 0.00 0.00 0.00 0.00 0.00 0.00 0.00 0.00 0.00 0.00 0.00 0.00 0.00 0.00 0.00 0.00 0.00 0.00 0.01 0.01 0.00 0.00 0.00 0.00 0.00 0.00 0.00 0.00 0.00 0.00 0.00
0.00 0.00 0.00 0.00 0.00 0.00 0.00 0.00 0.00 0.00 0.00 0.00 0.00 0.00 0.00 0.00 0.00 0.00 0.00 0.00 0.00 0.00 0.00 0.00 0.00 0.01 0.01 0.01 0.01 0.00 0.00 0.00 0.00 0.00 0.00 0.00 0.00 0.00
0.00 0.00 0.00 0.00 0.00 0.00 0.00 0.00 0.00 0.00 0.00 0.00 0.00 0.00 0.00 0.00 0.00 0.00 0.00 0.00 0.00 0.00 0.00 0.00 0.00 0.00 0.01 0.02 0.02 0.00 0.00 0.00 0.00 0.00 0.01 0.01 0.01 0.00
0.00 0.00 0.00 0.00 0.00 0.00 0.00 0.00 0.00 0.00 0.00 0.00 0.00 0.00 0.00 0.00 0.00 0.00 0.00 0.00 0.00 0.00 0.00 0.00 0.00 0.00 0.01 0.02 0.01 0.00 0.00 0.00 0.00 0.00 0.00 0.01 0.02 0.01
0.00 0.00 0.00 0.00 0.00 0.00 0.00 0.00 0.00 0.00 0.00 0.00 0.00 0.00 0.00 0.00 0.00 0.00 0.00 0.00 0.00 0.00 0.00 0.00 0.00 0.00 0.01 0.01 0.01 0.01 0.00 0.00 0.00 0.00 0.00 0.00 0.00 0.00
MSLP
1019.82 1019.88 1019.92 1019.93 1019.90 1019.85 1019.81 1019.82 1019.90 1020.09 1020.36 1020.71 1021.09 1021.45 1021.73 1021.88 1021.88 1021.72 1021.42 1021.03 1020.59 1020.17 1019.83 1019.60 1019.50 1019.54 1019.71 1019.98 1020.33 1020.71 1021.11 1021.51 1021.87 1022.21 1022.50 1022.74 1022.93 1023.07
1020.37 1020.46 1020.51 1020.52 1020.48 1020.41 1020.34 1020.32 1020.36 1020.50 1020.73 1021.04 1021.39 1021.73 1022.01 1022.18 1022.21 1022.09 1021.85 1021.52 1021.14 1020.78 1020.48 1020.28 1020.20 1020.23 1020.37 1020.59 1020.86 1021.16 1021.45 1021.74 1022.00 1022.23 1022.43 1022.61 1022.75 1022.86
1021.00 1021.10 1021.17 1021.18 1021.13 1021.05 1020.95 1020.89 1020.88 1020.96 1021.13 1021.38 1021.68 1021.98 1022.23 1022.40 1022.46 1022.39 1022.20 1021.94 1021.64 1021.35 1021.11 1020.94 1020.88 1020.91 1021.02 1021.19 1021.39 1021.61 1021.81 1022.00 1022.16 1022.30 1022.42 1022.52 1022.61 1022.69
1021.64 1021.76 1021.83 1021.85 1021.80 1021.71 1021.59 1021.48 1021.43 1021.44 1021.55 1021.73 1021.96 1022.21 1022.43 1022.59 1022.65 1022.62 1022.49 1022.29 1022.05 1021.83 1021.64 1021.51 1021.47 1021.49 1021.58 1021.71 1021.85 1022.00 1022.13 1022.23 1022.32 1022.39 1022.44 1022.49 1022.54 1022.58
1022.25 1022.38 1022.47 1022.49 1022.44 1022.34 1022.21 1022.07 1021.98 1021.94 1021.98 1022.09 1022.26 1022.45 1022.63 1022.77 1022.83 1022.82 1022.72 1022.57 1022.39 1022.21 1022.06 1021.96 1021.92 1021.94 1021.99 1022.08 1022.18 1022.27 1022.34 1022.40 1022.43 1022.46 1022.47 1022.49 1022.51 1022.53
1022.81 1022.94 1023.03 1023.06 1023.02 1022.92 1022.79 1022.64 1022.52 1022.44 1022.43 1022.49 1022.60 1022.74 1022.88 1022.98 1023.04 1023.03 1022.96 1022.83 1022.68 1022.53 1022.40 1022.30 1022.25 1022.23 1022.26 1022.30 1022.35 1022.40 1022.44 1022.47 1022.48 1022.49 1022.49 1022.49 1022.50 1022.51
1023.30 1023.43 1023.52 1023.55 1023.53 1023.44 1023.31 1023.17 1023.04 1022.95 1022.91 1022.92 1022.99 1023.08 1023.18 1023.26 1023.30 1023.28 1023.22 1023.11 1022.96 1022.82 1022.67 1022.56 1022.47 1022.42 1022.39 1022.39 1022.40 1022.42 1022.43 1022.44 1022.45 1022.46 1022.47 1022.48 1022.49 1022.51
1023.72 1023.84 1023.93 1023.97 1023.95 1023.88 1023.78 1023.65 1023.53 1023.44 1023.39 1023.38 1023.41 1023.47 1023.54 1023.59 1023.62 1023.59 1023.52 1023.41 1023.27 1023.10 1022.94 1022.79 1022.66 1022.55 1022.47 1022.41 1022.38 1022.35 1022.35 1022.35 1022.36 1022.39 1022.41 1022.44 1022.46 1022.48
1024.08 1024.18 1024.26 1024.31 1024.30 1024.26 1024.18 1024.08 1023.98 1023.90 1023.85 1023.84 1023.86 1023.90 1023.94 1023.98 1023.99 1023.95 1023.88 1023.76 1023.60 1023.42 1023.23 1023.03 1022.85 1022.69 1022.55 1022.43 1022.35 1022.29 1022.25 1022.24 1022.26 1022.28 1022.32 1022.36 1022.39 1022.42
1024.36 1024.45 1024.52 1024.56 1024.57 1024.55 1024.49 1024.43 1024.35 1024.30 1024.26 1024.25 1024.27 1024.30 1024.34 1024.36 1024.36 1024.33 1024.25 1024.13 1023.97 1023.77 1023.55 1023.33 1023.10 1022.89 1022.69 1022.52 1022.38 1022.27 1022.20 1022.17 1022.16 1022.18 1022.22 1022.26 1022.29 1022.30
1024.55 1024.62 1024.69 1024.73 1024.75 1024.74 1024.72 1024.68 1024.63 1024.60 1024.58 1024.59 1024.61 1024.64 1024.67 1024.70 1024.70 1024.67 1024.60 1024.49 1024.33 1024.14 1023.91 1023.67 1023.41 1023.16 1022.92 1022.70 1022.51 1022.35 1022.24 1022.16 1022.12 1022.11 1022.12 1022.13 1022.14 1022.13
1024.64 1024.70 1024.76 1024.80 1024.83 1024.84 1024.83 1024.82 1024.80 1024.79 1024.79 1024.80 1024.83 1024.87 1024.91 1024.94 1024.95 1024.93 1024.88 1024.79 1024.65 1024.47 1024.26 1024.01 1023.75 1023.48 1023.21 1022.96 1022.73 1022.52 1022.36 1022.23 1022.14 1022.07 1022.03 1021.99 1021.96 1021.91
1024.63 1024.69 1024.74 1024.79 1024.82 1024.83 1024.84 1024.84 1024.83 1024.84 1024.85 1024.88 1024.92 1024.97 1025.01 1025.05 1025.08 1025.08 1025.05 1024.99 1024.88 1024.73 1024.54 1024.32 1024.07 1023.81 1023.53 1023.25 1022.99 1022.74 1022.52 1022.33 1022.18 1022.04 1021.93 1021.83 1021.74 1021.64
1024.52 1024.58 1024.63 1024.68 1024.71 1024.73 1024.74 1024.74 1024.75 1024.77 1024.79 1024.83 1024.88 1024.93 1024.99 1025.04 1025.08 1025.10 1025.09 1025.05 1024.98 1024.87 1024.71 1024.53 1024.30 1024.05 1023.78 1023.50 1023.21 1022.93 1022.66 1022.41 1022.19 1021.98 1021.79 1021.62 1021.45 1021.30
1024.33 1024.40 1024.46 1024.50 1024.52 1024.54 1024.55 1024.55 1024.57 1024.59 1024.63 1024.67 1024.73 1024.79 1024.86 1024.91 1024.96 1024.99 1025.00 1024.99 1024.94 1024.85 1024.74 1024.58 1024.38 1024.15 1023.89 1023.61 1023.31 1023.00 1022.69 1022.39 1022.10 1021.82 1021.56 1021.31 1021.08 1020.87
1024.08 1024.16 1024.22 1024.25 1024.27 1024.28 1024.29 1024.29 1024.31 1024.34 1024.39 1024.44 1024.51 1024.58 1024.65 1024.71 1024.76 1024.79 1024.80 1024.79 1024.75 1024.68 1024.58 1024.44 1024.27 1024.06 1023.81 1023.53 1023.22 1022.89 1022.55 1022.21 1021.86 1021.52 1021.20 1020.90 1020.61 1020.35
1023.78 1023.87 1023.92 1023.96 1023.97 1023.97 1023.97 1023.98 1024.01 1024.05 1024.10 1024.17 1024.25 1024.33 1024.40 1024.46 1024.50 1024.52 1024.52 1024.49 1024.44 1024.37 1024.26 1024.13 1023.96 1023.75 1023.51 1023.23 1022.91 1022.57 1022.20 1021.83 1021.44 1021.07 1020.70 1020.35 1020.03 1019.74
1023.42 1023.51 1023.57 1023.60 1023.61 1023.61 1023.61 1023.63 1023.67 1023.72 1023.80 1023.88 1023.97 1024.06 1024.13 1024.18 1024.20 1024.20 1024.17 1024.12 1024.04 1023.94 1023.81 1023.66 1023.47 1023.26 1023.01 1022.72 1022.40 1022.04 1021.67 1021.27 1020.86 1020.45 1020.06 1019.69 1019.35 1019.04
1022.99 1023.08 1023.14 1023.17 1023.18 1023.18 1023.19 1023.23 1023.28 1023.36 1023.46 1023.57 1023.68 1023.77 1023.84 1023.88 1023.89 1023.86 1023.79 1023.70 1023.58 1023.43 1023.27 1023.08 1022.88 1022.64 1022.38 1022.08 1021.75 1021.39 1020.99 1020.58 1020.16 1019.75 1019.34 1018.96 1018.61 1018.30
1022.44 1022.54 1022.59 1022.63 1022.64 1022.66 1022.69 1022.75 1022.84 1022.95 1023.08 1023.21 1023.34 1023.45 1023.52 1023.55 1023.53 1023.47 1023.37 1023.24 1023.07 1022.89 1022.69 1022.47 1022.23 1021.98 1021.69 1021.38 1021.04 1020.67 1020.27 1019.86 1019.43 1019.00 1018.59 1018.20 1017.85 1017.54
1021.75 1021.84 1021.91 1021.95 1021.99 1022.03 1022.09 1022.19 1022.31 1022.46 1022.62 1022.79 1022.93 1023.05 1023.13 1023.15 1023.12 1023.04 1022.91 1022.75 1022.55 1022.34 1022.10 1021.86 1021.60 1021.33 1021.03 1020.71 1020.36 1019.98 1019.58 1019.15 1018.72 1018.29 1017.87 1017.48 1017.12 1016.80
1020.89 1020.99 1021.06 1021.12 1021.19 1021.27 1021.38 1021.52 1021.68 1021.87 1022.07 1022.26 1022.43 1022.56 1022.64 1022.67 1022.63 1022.54 1022.40 1022.22 1022.01 1021.78 1021.53 1021.28 1021.01 1020.73 1020.43 1020.10 1019.74 1019.36 1018.95 1018.51 1018.07 1017.63 1017.20 1016.79 1016.42 1016.09
1019.87 1019.97 1020.07 1020.17 1020.27 1020.40 1020.56 1020.74 1020.95 1021.18 1021.41 1021.63 1021.82 1021.96 1022.04 1022.07 1022.04 1021.95 1021.81 1021.63 1021.43 1021.20 1020.97 1020.72 1020.46 1020.18 1019.88 1019.55 1019.19 1018.80 1018.38 1017.93 1017.47 1017.01 1016.56 1016.14 1015.74 1015.39
Thickness
5581 5579 5576 5572 5568 5566 5563 5561 5561 5561 5556 5542 5533 5526 5522 5520 5517 5515 5513 5511 5510 5509 5507 5505 5503 5501 5499 5496 5494 5491 5488 5484 5482 5480 5478 5477 5477 5477
5568 5566 5562 5559 5556 5553 5551 5548 5546 5547 5543 5529 5521 5515 5512 5509 5506 5504 5502 5500 5498 5497 5495 5493 5491 5489 5486 5484 5481 5480 5477 5474 5472 5470 5468 5468 5467 5467
5555 5553 5549 5546 5544 5541 5538 5536 5533 5532 5530 5517 5510 5505 5502 5499 5496 5493 5491 5489 5487 5485 5483 5482 5479 5477 5474 5472 5470 5468 5465 5463 5461 5460 5458 5457 5456 5457
5542 5539 5536 5533 5531 5528 5526 5523 5521 5519 5517 5510 5501 5496 5492 5488 5486 5483 5480 5478 5476 5473 5472 5470 5468 5465 5463 5461 5459 5457 5455 5453 5451 5449 5447 5447 5446 5446
5528 5526 5523 5521 5518 5515 5513 5511 5509 5506 5504 5501 5493 5486 5482 5478 5476 5473 5470 5468 5465 5463 5461 5459 5457 5454 5452 5450 5448 5445 5444 5442 5440 5438 5436 5435 5434 5434
5514 5512 5510 5508 5506 5503 5501 5499 5497 5496 5493 5489 5484 5478 5474 5469 5467 5464 5462 5459 5456 5453 5451 5449 5446 5444 5441 5439 5436 5434 5432 5430 5428 5426 5425 5424 5422 5421
5500 5499 5497 5495 5493 5492 5490 5488 5486 5485 5482 5478 5474 5469 5464 5460 5457 5453 5452 5449 5447 5443 5441 5439 5437 5435 5431 5428 5425 5422 5420 5418 5416 5414 5412 5411 5410 5409
5488 5486 5484 5483 5481 5479 5477 5475 5473 5472 5469 5466 5463 5459 5454 5450 5446 5442 5440 5439 5439 5433 5430 5429 5426 5424 5420 5417 5413 5410 5408 5405 5403 5401 5399 5398 5396 5395
5477 5476 5474 5471 5470 5468 5466 5463 5461 5457 5455 5455 5452 5448 5443 5439 5434 5431 5427 5425 5423 5420 5417 5419 5415 5412 5408 5404 5400 5397 5395 5392 5389 5387 5385 5383 5382 5381
5467 5466 5464 5462 5460 5458 5456 5454 5451 5448 5445 5442 5439 5435 5430 5426 5422 5418 5415 5412 5411 5408 5403 5404 5403 5399 5395 5391 5386 5383 5380 5378 5375 5372 5370 5369 5368 5367
5456 5455 5454 5453 5450 5448 5447 5444 5442 5438 5433 5430 5426 5422 5418 5414 5410 5408 5404 5402 5402 5399 5391 5388 5387 5383 5381 5379 5374 5369 5365 5363 5360 5358 5356 5354 5353 5353
5448 5446 5444 5444 5441 5439 5438 5436 5434 5430 5425 5421 5417 5413 5409 5404 5399 5396 5391 5387 5385 5384 5378 5372 5369 5365 5365 5364 5359 5356 5353 5350 5346 5344 5342 5340 5339 5339
5441 5440 5437 5434 5433 5431 5429 5427 5424 5420 5416 5413 5409 5405 5401 5396 5390 5385 5379 5374 5370 5367 5363 5355 5351 5347 5344 5345 5344 5341 5339 5336 5334 5332 5330 5328 5326 5325
5433 5432 5429 5426 5424 5422 5420 5417 5413 5410 5407 5404 5400 5396 5391 5385 5379 5374 5368 5363 5357 5353 5348 5341 5337 5333 5329 5327 5328 5328 5325 5322 5321 5320 5318 5317 5315 5314
5426 5423 5421 5418 5416 5414 5411 5408 5404 5402 5399 5395 5391 5386 5380 5374 5368 5363 5359 5353 5348 5343 5338 5331 5325 5321 5315 5313 5312 5311 5310 5309 5308 5307 5306 5305 5304 5304
5418 5416 5413 5411 5408 5406 5403 5400 5396 5394 5390 5387 5383 5377 5371 5365 5360 5355 5350 5344 5340 5337 5331 5324 5317 5311 5307 5303 5300 5299 5297 5296 5297 5294 5294 5293 5293 5293
5412 5409 5407 5405 5403 5400 5397 5393 5389 5385 5381 5378 5373 5368 5363 5357 5352 5346 5340 5334 5330 5327 5323 5316 5310 5304 5299 5295 5293 5292 5290 5289 5287 5285 5284 5285 5285 5285
5405 5404 5403 5401 5398 5395 5392 5388 5384 5379 5375 5370 5364 5359 5354 5349 5344 5338 5332 5326 5322 5318 5313 5308 5302 5297 5295 5293 5288 5285 5283 5281 5280 5278 5276 5276 5278 5279
5400 5400 5398 5395 5392 5389 5385 5382 5378 5373 5367 5361 5357 5351 5346 5340 5335 5330 5324 5319 5314 5310 5305 5300 5294 5288 5286 5287 5288 5279 5276 5274 5272 5271 5270 5271 5272 5273
5397 5395 5393 5390 5387 5383 5379 5375 5371 5366 5360 5355 5350 5344 5338 5333 5327 5323 5318 5312 5307 5302 5298 5293 5288 5283 5279 5277 5275 5272 5267 5266 5265 5265 5265 5265 5266 5267
5394 5391 5388 5385 5382 5378 5374 5369 5365 5360 5355 5349 5343 5338 5332 5326 5321 5316 5311 5306 5300 5296 5292 5289 5284 5277 5271 5266 5266 5268 5266 5262 5260 5258 5258 5258 5261 5264
5390 5387 5384 5381 5377 5373 5368 5363 5359 5354 5349 5343 5338 5332 5326 5320 5315 5309 5304 5300 5295 5291 5286 5282 5276 5270 5265 5263 5263 5264 5263 5260 5258 5256 5255 5254 5255 5260
5387 5384 5380 5377 5372 5368 5363 5359 5354 5349 5344 5338 5332 5327 5320 5314 5309 5304 5299 5294 5289 5285 5280 5276 5272 5268 5264 5260 5259 5259 5258 5257 5257 5257 5257 5256 5256 5257